GSLV R/B, 65054

Orbit data source: Space-Track

GSLV R/B, 65054 is space debris in SSO originally from a launch on Wed, 30 Jul 2025 UTC launched from the Sirharikota (SRI). Debris objects in space refer to the collection of defunct objects orbiting the Earth. Examples of debris include non-operational satellites, rocket bodies, and fragments generated from explosions, collisions, or faulty payload assembly.

Loading next visibility...
Identifier
65054, 2025-163B
Orbit
SSO
Country
Flag of ININ / IND
Related business
Manufacturer
ISRO
Mission
Spacecraft
Bus & Motor
CUS15, Unknown motor
Mass
2,630 kg wet, 2,630 kg dry
Launch date (UTC)
2025-07-30 (10 months ago)
Launch vehicle
Unknown
Launch site
Sirharikota (SRI)
Object type
Payload
Rocket body
Debris
Shape & HBR
Cyl, 8.0 m
Radar Cross Section
22.211 m², Large (>1 m²)

Expand to show TLE details & history
Last TLE update: 3 days ago

TLE from 3 days ago
0 GSLV R/B
1 65054U 25163B   26155.08619948  .00000388  00000-0  11678-3 0  9996
2 65054  98.4341 346.1588 0013165  89.9361 270.3341 14.47832097 44641
Epoch: 2026-06-04T02:04Z
TLE epoch observation values (Epoch: 2026-06-04T02:04:07.635Z)
Latitude
0.00007°
Longitude
62.59146°
Altitude
735.657 km
Speed
7.487 km/s
True Right ascension
23h 04m 38s
True Declination
0° 00' 00"
Sunlit
Object was in daylight at epoch
Visualization orbit readout
Latitude
Unknown
Longitude
Unknown
Altitude
Unknown
Speed
Unknown
Apparent Right ascension
Unknown
Apparent Declination
Unknown
Sunlit
N/A
Visualization observer readout
Local Sidereal Time
03:29:24
Azimuth
Unknown
Elevation
Unknown
Doppler factor
Unknown
Orbital elements
Apogee altitude
739.204 km
Perigee altitude
720.489 km
Semi-major axis
7,107.983 km
Eccentricity
0.00132
Inclination
98.4341°
RAAN
346.1588°
Arg. of periapsis
89.9361°
True anomaly
270.18324°
Mean anomaly
270.3341°
Eccentric anomaly
270.25867°
Mean motion
3.62179 °/min
Orbital period
99.4 mins
BSTAR
0.00011678
Loading maneuver chart data...
Computing Atmospheric mass density...
Loading historical data...
Loading historical data...
Loading historical data...
Loading historical data...
Loading historical data...
Loading historical data...
Loading historical data...
Other satellites on launch #163 in the year 2025 (2025-07-30 UTC)

Documentation

Showing up to 5 results
|